Lid_Strength_Index
3 3 3 3 3 3 3 3 3 3 3 2 2 2 2 2 3 4 6 4 3 -2 -1 2 4 5 5 7 5 8 11 13 12 12 12 10 11 9 7 7 6 6 6 6 5
4 4 4 4 4 4 4 4 3 3 3 3 3 3 3 3 4 7 2 -1 -2 -2 4 5 7 6 8 8 7 9 13 12 11 11 11 11 10 9 8 7 7 7 5 5 5
3 4 4 4 5 4 4 4 4 4 3 3 3 3 3 3 6 6 -1 -1 -2 -2 4 4 6 7 10 9 8 9 10 10 10 10 10 10 10 8 8 9 8 8 7 6 6
4 4 4 4 4 4 5 5 5 4 4 4 4 3 3 4 12 6 -2 -2 -2 0 5 6 7 9 10 10 9 10 8 9 9 9 10 10 9 8 8 7 6 6 6 6 6
4 4 4 4 4 4 4 4 4 5 5 5 4 4 4 8 7 3 -2 -1 0 2 5 6 7 8 10 9 8 10 10 9 8 9 10 9 10 8 8 6 6 6 6 6 6
3 4 4 4 4 4 4 4 4 4 4 4 4 3 7 9 4 4 0 1 2 4 5 6 5 6 8 8 9 8 9 9 9 10 10 10 9 7 7 6 6 6 7 7 6
3 3 4 4 4 4 3 3 4 3 3 3 3 3 6 8 4 2 1 4 4 4 6 5 4 6 7 8 7 8 10 9 10 10 10 9 10 10 7 6 7 7 7 7 6
4 4 4 4 4 4 3 3 4 3 3 2 1 3 8 3 4 5 3 4 4 4 5 5 4 6 7 8 9 10 10 13 10 9 9 10 12 9 6 7 7 7 7 7 6
4 4 4 4 4 4 4 4 4 3 2 0 3 5 8 2 3 3 2 4 4 4 5 4 6 8 8 10 11 11 13 12 11 9 10 11 11 8 7 7 8 8 8 7 7
4 4 5 5 5 5 5 5 4 3 1 1 2 8 8 7 3 2 2 3 4 5 6 7 9 10 11 12 14 13 12 12 12 10 11 11 11 9 7 7 8 9 8 8 7
4 4 4 4 5 5 6 9 9 7 5 8 9 8 5 4 4 3 3 4 4 6 8 8 10 12 10 10 10 10 11 12 10 9 10 11 11 10 8 8 9 9 9 9 8
5 5 5 4 5 5 8 11 9 9 11 7 6 6 5 4 7 4 3 6 7 9 8 10 12 9 8 9 10 10 12 12 10 9 10 11 11 10 8 8 9 10 10 9 9
4 4 5 5 5 7 9 8 7 7 10 8 7 6 6 5 7 6 4 6 8 9 9 10 9 7 9 9 10 11 12 12 11 9 10 12 12 10 9 8 8 9 9 9 9
4 4 5 5 10 11 10 8 8 8 13 11 8 7 6 6 8 4 4 6 8 9 9 9 8 8 9 10 10 12 9 10 10 12 14 11 17 12 10 10 9 10 10 10 9
4 5 5 6 11 12 9 8 8 8 20 10 9 5 6 8 7 6 4 6 8 9 9 9 9 10 10 9 8 10 8 10 10 12 14 13 15 12 10 11 9 10 10 10 9
5 5 5 8 11 9 8 8 9 13 19 12 9 9 9 8 8 7 6 5 6 8 9 8 7 8 8 7 8 7 11 11 12 13 17 13 14 14 12 10 9 10 10 10 10
5 5 6 8 12 9 8 9 14 17 11 12 12 9 9 10 9 8 9 9 10 12 12 10 9 8 7 10 10 11 14 17 17 18 18 12 14 13 10 9 9 9 10 10 9
5 5 6 7 9 8 10 12 17 14 13 10 11 10 11 10 10 9 9 11 9 10 12 13 13 9 8 10 11 12 13 16 18 18 15 12 15 12 9 8 8 7 9 9 10
5 7 8 7 7 9 13 15 15 14 11 11 11 12 12 10 10 10 10 10 9 9 11 12 12 8 8 9 10 12 14 11 14 14 16 14 12 10 8 8 9 10 10 10 9
6 9 10 7 7 11 15 14 13 10 10 10 13 11 13 12 11 11 11 9 9 8 8 11 13 10 8 8 9 11 10 14 15 18 19 16 15 15 11 10 9 10 11 9 8
7 11 9 6 8 14 18 15 11 9 9 11 12 13 12 12 11 12 11 9 8 8 8 10 12 11 9 10 11 11 12 12 13 14 17 19 16 10 10 10 9 10 9 9 8
8 14 9 6 14 15 17 14 10 10 9 9 10 11 11 11 11 12 11 9 7 8 10 9 11 13 12 10 8 10 11 12 15 16 15 16 16 9 9 8 8 9 9 9 8
9 10 8 7 15 16 14 14 11 11 10 11 11 10 10 11 13 11 10 8 8 8 10 10 13 14 14 13 10 12 11 11 12 13 16 18 16 8 8 8 8 9 9 9 8
6 11 8 8 10 13 14 15 14 11 11 10 11 10 11 12 11 12 10 8 8 7 5 7 12 12 14 12 12 13 12 11 12 16 15 15 13 10 9 9 8 9 9 9 8
6 9 8 11 10 11 14 14 15 15 11 10 12 11 12 14 12 13 11 10 8 6 8 9 12 11 10 9 10 11 12 12 13 12 14 12 13 10 9 9 7 8 9 9 9
9 8 7 9 8 9 9 12 14 14 13 12 12 11 11 13 12 13 11 11 11 10 10 10 13 12 14 10 10 11 11 11 11 11 12 12 12 8 7 7 7 8 9 9 9
4 3 6 9 9 10 10 10 10 10 10 10 11 11 12 11 10 10 10 10 11 13 12 11 12 14 17 12 13 16 12 11 11 10 10 13 10 8 8 8 7 6 8 8 9